| time (UTC) | temp F | wind direction | speed MPH | gust MPH | rain 1hr in | rain 24hr in | rain mn in | humidity % | barometer mb |
| 20260507223734 | 60 | 340 | 2.0 | 7.0 | 0.00 | 0.00 | 0.00 | 41 | 1012.8 |
| 20260507223234 | 60 | 338 | 1.0 | 3.0 | 0.00 | 0.00 | 0.00 | 38 | 1012.8 |
| 20260507222731 | 61 | 17 | 2.0 | 6.0 | 0.00 | 0.00 | 0.00 | 39 | 1012.9 |
| 20260507222231 | 61 | 305 | 2.0 | 5.0 | 0.00 | 0.00 | 0.00 | 37 | 1013.0 |
| 20260507221731 | 60 | 307 | 2.0 | 5.0 | 0.00 | 0.00 | 0.00 | 39 | 1013.1 |
| 20260507221227 | 60 | 281 | 2.0 | 6.0 | 0.00 | 0.00 | 0.00 | 39 | 1013.1 |
| 20260507220727 | 59 | 335 | 4.0 | 10.0 | 0.00 | 0.00 | 0.00 | 39 | 1013.1 |
| 20260507220226 | 59 | 288 | 3.0 | 7.0 | 0.00 | 0.00 | 0.00 | 38 | 1013.2 |
| 20260507215725 | 60 | 284 | 4.0 | 11.0 | 0.00 | 0.00 | 0.00 | 39 | 1013.2 |
| 20260507215224 | 60 | 274 | 3.0 | 8.0 | 0.00 | 0.00 | 0.00 | 38 | 1013.2 |
| 20260507214724 | 60 | 266 | 2.0 | 6.0 | 0.00 | 0.00 | 0.00 | 37 | 1013.2 |
| 20260507214223 | 60 | 307 | 3.0 | 8.0 | 0.00 | 0.00 | 0.00 | 37 | 1013.2 |
| 20260507213723 | 60 | 278 | 5.0 | 11.0 | 0.00 | 0.00 | 0.00 | 42 | 1013.2 |
| 20260507213223 | 59 | 343 | 5.0 | 10.0 | 0.00 | 0.00 | 0.00 | 38 | 1013.2 |
| 20260507212722 | 59 | 260 | 3.0 | 7.0 | 0.00 | 0.00 | 0.00 | 39 | 1013.2 |
| 20260507211721 | 60 | 277 | 5.0 | 10.0 | 0.00 | 0.00 | 0.00 | 36 | 1013.2 |
| 20260507211220 | 61 | 226 | 5.0 | 11.0 | 0.00 | 0.00 | 0.00 | 40 | 1013.2 |
| 20260507210720 | 61 | 278 | 4.0 | 11.0 | 0.00 | 0.00 | 0.00 | 41 | 1013.2 |
| 20260507210219 | 60 | 342 | 4.0 | 11.0 | 0.00 | 0.00 | 0.00 | 44 | 1013.2 |
| 20260507205719 | 59 | 342 | 3.0 | 5.0 | 0.00 | 0.00 | 0.00 | 42 | 1013.2 |
| 20260507205218 | 59 | 257 | 5.0 | 10.0 | 0.00 | 0.00 | 0.00 | 38 | 1013.2 |
| 20260507204718 | 60 | 291 | 3.0 | 9.0 | 0.00 | 0.00 | 0.00 | 40 | 1013.1 |
| 20260507204218 | 60 | 285 | 6.0 | 12.0 | 0.00 | 0.00 | 0.00 | 39 | 1013.1 |
| 20260507203717 | 60 | 298 | 7.0 | 13.0 | 0.00 | 0.00 | 0.00 | 38 | 1013.1 |
| 20260507203217 | 60 | 256 | 5.0 | 11.0 | 0.00 | 0.00 | 0.00 | 39 | 1013.0 |
| 20260507202717 | 60 | 308 | 4.0 | 10.0 | 0.00 | 0.00 | 0.00 | 40 | 1013.1 |
| 20260507202216 | 60 | 273 | 7.0 | 12.0 | 0.00 | 0.00 | 0.00 | 40 | 1013.2 |
| 20260507201716 | 60 | 326 | 6.0 | 12.0 | 0.00 | 0.00 | 0.00 | 41 | 1013.2 |
| 20260507201216 | 60 | 316 | 4.0 | 8.0 | 0.00 | 0.00 | 0.00 | 41 | 1013.1 |
| 20260507200715 | 60 | 13 | 6.0 | 13.0 | 0.00 | 0.00 | 0.00 | 42 | 1013.2 |
| 20260507200215 | 60 | 333 | 5.0 | 12.0 | 0.00 | 0.00 | 0.00 | 45 | 1013.1 |
| 20260507195715 | 60 | 293 | 2.0 | 8.0 | 0.00 | 0.00 | 0.00 | 40 | 1013.2 |
| 20260507195215 | 60 | 322 | 4.0 | 10.0 | 0.00 | 0.00 | 0.00 | 38 | 1013.3 |
| 20260507194715 | 60 | 322 | 6.0 | 14.0 | 0.00 | 0.00 | 0.00 | 40 | 1013.4 |
| 20260507194214 | 60 | 326 | 6.0 | 11.0 | 0.00 | 0.00 | 0.00 | 44 | 1013.4 |
| 20260507193714 | 60 | 307 | 4.0 | 7.0 | 0.00 | 0.00 | 0.00 | 42 | 1013.5 |
| 20260507193214 | 60 | 273 | 5.0 | 13.0 | 0.00 | 0.00 | 0.00 | 45 | 1013.5 |
| 20260507192714 | 59 | 11 | 6.0 | 11.0 | 0.00 | 0.00 | 0.00 | 43 | 1013.4 |
| 20260507192213 | 59 | 294 | 5.0 | 13.0 | 0.00 | 0.00 | 0.00 | 41 | 1013.4 |
| 20260507191712 | 59 | 315 | 5.0 | 11.0 | 0.00 | 0.00 | 0.00 | 44 | 1013.3 |
| 20260507191210 | 59 | 336 | 6.0 | 12.0 | 0.00 | 0.00 | 0.00 | 41 | 1013.5 |
| 20260507190708 | 60 | 328 | 5.0 | 12.0 | 0.00 | 0.00 | 0.00 | 46 | 1013.4 |
| 20260507190208 | 59 | 330 | 6.0 | 12.0 | 0.00 | 0.00 | 0.00 | 44 | 1013.5 |
| 20260507185708 | 59 | 319 | 6.0 | 11.0 | 0.00 | 0.00 | 0.00 | 41 | 1013.6 |
| 20260507185208 | 59 | 315 | 7.0 | 12.0 | 0.00 | 0.00 | 0.00 | 45 | 1013.6 |
| 20260507184708 | 59 | 326 | 6.0 | 10.0 | 0.00 | 0.00 | 0.00 | 41 | 1013.6 |
| 20260507184207 | 58 | 319 | 5.0 | 10.0 | 0.00 | 0.00 | 0.00 | 47 | 1013.4 |
| 20260507183706 | 58 | 318 | 6.0 | 14.0 | 0.00 | 0.00 | 0.00 | 48 | 1013.8 |
| 20260507183205 | 58 | 329 | 7.0 | 13.0 | 0.00 | 0.00 | 0.00 | 43 | 1013.8 |
| 20260507182705 | 59 | 338 | 5.0 | 12.0 | 0.00 | 0.00 | 0.00 | 43 | 1013.7 |
| 20260507182205 | 58 | 293 | 6.0 | 10.0 | 0.00 | 0.00 | 0.00 | 49 | 1013.7 |
| 20260507181705 | 58 | 314 | 6.0 | 15.0 | 0.00 | 0.00 | 0.00 | 48 | 1013.8 |
| 20260507181204 | 58 | 325 | 7.0 | 13.0 | 0.00 | 0.00 | 0.00 | 41 | 1013.6 |
| 20260507180704 | 58 | 307 | 5.0 | 11.0 | 0.00 | 0.00 | 0.00 | 44 | 1013.9 |
| 20260507180204 | 58 | 13 | 6.0 | 11.0 | 0.00 | 0.00 | 0.00 | 45 | 1013.9 |
| 20260507175704 | 58 | 325 | 6.0 | 12.0 | 0.00 | 0.00 | 0.00 | 47 | 1013.9 |
| 20260507175204 | 58 | 332 | 5.0 | 11.0 | 0.00 | 0.00 | 0.00 | 48 | 1014.0 |
| 20260507174703 | 57 | 284 | 6.0 | 14.0 | 0.00 | 0.00 | 0.00 | 47 | 1014.0 |
| 20260507174203 | 57 | 266 | 6.0 | 11.0 | 0.00 | 0.00 | 0.00 | 45 | 1014.0 |
| 20260507173703 | 56 | 323 | 7.0 | 14.0 | 0.00 | 0.00 | 0.00 | 43 | 1014.1 |
| 20260507173203 | 57 | 295 | 7.0 | 16.0 | 0.00 | 0.00 | 0.00 | 45 | 1014.2 |
| 20260507172702 | 57 | 340 | 6.0 | 15.0 | 0.00 | 0.00 | 0.00 | 47 | 1014.2 |
| 20260507172202 | 57 | 326 | 5.0 | 12.0 | 0.00 | 0.00 | 0.00 | 47 | 1014.3 |
| 20260507171701 | 56 | 315 | 6.0 | 9.0 | 0.00 | 0.00 | 0.00 | 43 | 1014.4 |
| 20260507171201 | 56 | 274 | 6.0 | 12.0 | 0.00 | 0.00 | 0.00 | 45 | 1014.4 |
| 20260507170700 | 56 | 301 | 7.0 | 14.0 | 0.00 | 0.00 | 0.00 | 44 | 1014.5 |
| 20260507170200 | 57 | 314 | 6.0 | 14.0 | 0.00 | 0.00 | 0.00 | 44 | 1014.6 |
| 20260507165700 | 56 | 301 | 6.0 | 14.0 | 0.00 | 0.00 | 0.00 | 43 | 1014.6 |
| 20260507165200 | 57 | 271 | 5.0 | 14.0 | 0.00 | 0.00 | 0.00 | 41 | 1014.6 |
| 20260507164659 | 56 | 295 | 7.0 | 14.0 | 0.00 | 0.00 | 0.00 | 44 | 1014.6 |
| 20260507164159 | 57 | 316 | 4.0 | 11.0 | 0.00 | 0.00 | 0.00 | 49 | 1014.6 |
| 20260507163658 | 57 | 304 | 4.0 | 9.0 | 0.00 | 0.00 | 0.00 | 49 | 1014.7 |
| 20260507163158 | 56 | 287 | 5.0 | 14.0 | 0.00 | 0.00 | 0.00 | 50 | 1014.7 |
| 20260507162658 | 56 | 212 | 6.0 | 12.0 | 0.00 | 0.00 | 0.00 | 52 | 1014.7 |
| 20260507162158 | 55 | 271 | 5.0 | 11.0 | 0.00 | 0.00 | 0.00 | 49 | 1014.8 |
| 20260507161658 | 56 | 290 | 4.0 | 8.0 | 0.00 | 0.00 | 0.00 | 49 | 1014.8 |
| 20260507161157 | 55 | 281 | 5.0 | 9.0 | 0.00 | 0.00 | 0.00 | 48 | 1014.8 |
| 20260507160657 | 55 | 287 | 4.0 | 9.0 | 0.00 | 0.00 | 0.00 | 48 | 1014.8 |
| 20260507160155 | 55 | 228 | 4.0 | 10.0 | 0.00 | 0.00 | 0.00 | 50 | 1014.8 |
| 20260507155655 | 55 | 225 | 5.0 | 13.0 | 0.00 | 0.00 | 0.00 | 46 | 1014.9 |
| 20260507155155 | 55 | 238 | 5.0 | 13.0 | 0.00 | 0.00 | 0.00 | 49 | 1014.8 |
| 20260507154655 | 54 | 301 | 6.0 | 13.0 | 0.00 | 0.00 | 0.00 | 48 | 1014.9 |
| 20260507154154 | 55 | 298 | 5.0 | 12.0 | 0.00 | 0.00 | 0.00 | 46 | 1014.8 |
| 20260507153654 | 55 | 225 | 5.0 | 13.0 | 0.00 | 0.00 | 0.00 | 44 | 1014.8 |
| 20260507153154 | 54 | 277 | 2.0 | 5.0 | 0.00 | 0.00 | 0.00 | 46 | 1014.7 |
| 20260507152654 | 54 | 290 | 5.0 | 10.0 | 0.00 | 0.00 | 0.00 | 45 | 1014.7 |
| 20260507152154 | 54 | 1 | 5.0 | 13.0 | 0.00 | 0.00 | 0.00 | 46 | 1014.6 |
| 20260507151653 | 54 | 315 | 3.0 | 8.0 | 0.00 | 0.00 | 0.00 | 46 | 1014.6 |
| 20260507151152 | 54 | 255 | 5.0 | 10.0 | 0.00 | 0.00 | 0.00 | 51 | 1014.6 |
| 20260507150652 | 54 | 215 | 5.0 | 11.0 | 0.00 | 0.00 | 0.00 | 48 | 1014.6 |
| 20260507150150 | 53 | 318 | 6.0 | 10.0 | 0.00 | 0.00 | 0.00 | 48 | 1014.5 |
| 20260507145650 | 53 | 236 | 5.0 | 10.0 | 0.00 | 0.00 | 0.00 | 46 | 1014.6 |
| 20260507145150 | 53 | 294 | 5.0 | 11.0 | 0.00 | 0.00 | 0.00 | 48 | 1014.6 |
| 20260507144649 | 53 | 233 | 5.0 | 10.0 | 0.00 | 0.00 | 0.00 | 47 | 1014.6 |
| 20260507144149 | 53 | 280 | 5.0 | 10.0 | 0.00 | 0.00 | 0.00 | 50 | 1014.6 |
| 20260507143649 | 53 | 340 | 5.0 | 9.0 | 0.00 | 0.00 | 0.00 | 49 | 1014.5 |
| 20260507143149 | 52 | 276 | 5.0 | 11.0 | 0.00 | 0.00 | 0.00 | 47 | 1014.6 |
| 20260507142648 | 53 | 316 | 3.0 | 8.0 | 0.00 | 0.00 | 0.00 | 49 | 1014.6 |
| 20260507142148 | 53 | 274 | 5.0 | 10.0 | 0.00 | 0.00 | 0.00 | 48 | 1014.6 |
| 20260507141648 | 53 | 295 | 3.0 | 6.0 | 0.00 | 0.00 | 0.00 | 52 | 1014.6 |
| 20260507141148 | 52 | 314 | 4.0 | 8.0 | 0.00 | 0.00 | 0.00 | 51 | 1014.7 |
| 20260507140648 | 52 | 274 | 5.0 | 10.0 | 0.00 | 0.00 | 0.00 | 49 | 1014.7 |
| 20260507140145 | 52 | 295 | 4.0 | 8.0 | 0.00 | 0.00 | 0.00 | 50 | 1014.7 |
| 20260507135645 | 51 | 335 | 4.0 | 8.0 | 0.00 | 0.00 | 0.00 | 50 | 1014.7 |
| 20260507135145 | 51 | 307 | 4.0 | 11.0 | 0.00 | 0.00 | 0.00 | 50 | 1014.7 |
| 20260507134645 | 51 | 315 | 5.0 | 10.0 | 0.00 | 0.00 | 0.00 | 46 | 1014.7 |
| 20260507134145 | 52 | 290 | 4.0 | 13.0 | 0.00 | 0.00 | 0.00 | 49 | 1014.6 |
| 20260507133137 | 51 | 274 | 4.0 | 8.0 | 0.00 | 0.00 | 0.00 | 53 | 1014.7 |
| 20260507132637 | 51 | 319 | 3.0 | 8.0 | 0.00 | 0.00 | 0.00 | 54 | 1014.7 |
| 20260507132136 | 51 | 297 | 3.0 | 6.0 | 0.00 | 0.00 | 0.00 | 54 | 1014.7 |
| 20260507131636 | 50 | 309 | 3.0 | 6.0 | 0.00 | 0.00 | 0.00 | 56 | 1014.7 |
| 20260507131136 | 50 | 326 | 3.0 | 8.0 | 0.00 | 0.00 | 0.00 | 58 | 1014.7 |
| 20260507130636 | 50 | 291 | 4.0 | 9.0 | 0.00 | 0.00 | 0.00 | 60 | 1014.7 |
| 20260507130135 | 50 | 300 | 4.0 | 10.0 | 0.00 | 0.00 | 0.00 | 58 | 1014.7 |
| 20260507125633 | 49 | 305 | 1.0 | 6.0 | 0.00 | 0.00 | 0.00 | 62 | 1014.7 |
| 20260507125132 | 49 | 300 | 1.0 | 4.0 | 0.00 | 0.00 | 0.00 | 67 | 1014.7 |
| 20260507124631 | 48 | 226 | 0.0 | 2.0 | 0.00 | 0.00 | 0.00 | 68 | 1014.7 |
| 20260507124133 | 48 | 0 | 0.0 | 0.0 | 0.00 | 0.00 | 0.00 | 69 | 1014.7 |
| 20260507123128 | 47 | 0 | 0.0 | 0.0 | 0.00 | 0.00 | 0.00 | 76 | 1014.8 |
| 20260507122628 | 47 | 0 | 0.0 | 0.0 | 0.00 | 0.00 | 0.00 | 79 | 1014.8 |
| 20260507122127 | 46 | 0 | 0.0 | 0.0 | 0.00 | 0.00 | 0.00 | 81 | 1014.8 |
| 20260507121625 | 45 | 0 | 0.0 | 0.0 | 0.00 | 0.00 | 0.00 | 84 | 1014.7 |
| 20260507121122 | 45 | 269 | 0.0 | 2.0 | 0.00 | 0.00 | 0.00 | 86 | 1014.7 |
| 20260507120621 | 44 | 262 | 0.0 | 2.0 | 0.00 | 0.00 | 0.00 | 88 | 1014.6 |
| 20260507120121 | 43 | 288 | 1.0 | 3.0 | 0.00 | 0.00 | 0.00 | 90 | 1014.7 |
| 20260507115621 | 43 | 238 | 0.0 | 1.0 | 0.00 | 0.00 | 0.00 | 92 | 1014.7 |
| 20260507115116 | 42 | 267 | 0.0 | 1.0 | 0.00 | 0.00 | 0.00 | 93 | 1014.7 |
| 20260507114615 | 42 | 195 | 0.0 | 1.0 | 0.00 | 0.00 | 0.00 | 94 | 1014.8 |
| 20260507114115 | 41 | 0 | 0.0 | 0.0 | 0.00 | 0.00 | 0.00 | 94 | 1014.8 |
| 20260507113615 | 41 | 304 | 0.0 | 1.0 | 0.00 | 0.00 | 0.00 | 94 | 1014.8 |
| 20260507113113 | 40 | 0 | 0.0 | 0.0 | 0.00 | 0.00 | 0.00 | 95 | 1014.7 |
| 20260507112613 | 40 | 0 | 0.0 | 0.0 | 0.00 | 0.00 | 0.00 | 94 | 1014.6 |
| 20260507112111 | 40 | 0 | 0.0 | 0.0 | 0.00 | 0.00 | 0.00 | 95 | 1014.5 |
| 20260507111611 | 39 | 0 | 0.0 | 0.0 | 0.00 | 0.00 | 0.00 | 95 | 1014.5 |
| 20260507111111 | 39 | 13 | 0.0 | 2.0 | 0.00 | 0.00 | 0.00 | 95 | 1014.4 |
| 20260507110609 | 39 | 13 | 1.0 | 2.0 | 0.00 | 0.00 | 0.00 | 95 | 1014.4 |
| 20260507110108 | 39 | 0 | 0.0 | 0.0 | 0.00 | 0.00 | 0.00 | 95 | 1014.3 |
| 20260507105608 | 39 | 0 | 0.0 | 0.0 | 0.00 | 0.00 | 0.00 | 95 | 1014.2 |
| 20260507105152 | 39 | 0 | 0.0 | 0.0 | 0.00 | 0.00 | 0.00 | 95 | 1014.2 |
| 20260507105107 | 39 | 0 | 0.0 | 0.0 | 0.00 | 0.00 | 0.00 | 95 | 1014.2 |
| 20260507104606 | 39 | 0 | 0.0 | 0.0 | 0.00 | 0.00 | 0.00 | 95 | 1014.2 |
| 20260507104105 | 39 | 0 | 0.0 | 0.0 | 0.00 | 0.00 | 0.00 | 95 | 1014.1 |
| 20260507103605 | 39 | 0 | 0.0 | 0.0 | 0.00 | 0.00 | 0.00 | 95 | 1014.1 |
| 20260507103104 | 39 | 3 | 1.0 | 2.0 | 0.00 | 0.00 | 0.00 | 95 | 1014.1 |
| 20260507102102 | 39 | 7 | 2.0 | 2.0 | 0.00 | 0.00 | 0.00 | 95 | 1014.2 |
| 20260507101602 | 39 | 14 | 0.0 | 2.0 | 0.00 | 0.00 | 0.00 | 95 | 1014.1 |
| 20260507100559 | 40 | 0 | 0.0 | 0.0 | 0.00 | 0.00 | 0.00 | 94 | 1014.1 |
| 20260507100058 | 40 | 0 | 0.0 | 0.0 | 0.00 | 0.00 | 0.00 | 95 | 1014.1 |
| 20260507095557 | 40 | 0 | 0.0 | 0.0 | 0.00 | 0.00 | 0.00 | 95 | 1014.1 |
| 20260507095056 | 40 | 0 | 0.0 | 0.0 | 0.00 | 0.00 | 0.00 | 95 | 1014.2 |
| 20260507094555 | 40 | 0 | 0.0 | 0.0 | 0.00 | 0.00 | 0.00 | 95 | 1014.1 |
| 20260507094055 | 40 | 0 | 0.0 | 0.0 | 0.00 | 0.00 | 0.00 | 95 | 1014.0 |
| 20260507093554 | 40 | 0 | 0.0 | 0.0 | 0.00 | 0.00 | 0.00 | 94 | 1014.0 |
| 20260507093054 | 40 | 0 | 0.0 | 0.0 | 0.00 | 0.00 | 0.00 | 94 | 1014.0 |
| 20260507092554 | 40 | 0 | 0.0 | 0.0 | 0.00 | 0.00 | 0.00 | 94 | 1013.9 |
| 20260507092054 | 40 | 0 | 0.0 | 0.0 | 0.00 | 0.00 | 0.00 | 94 | 1013.9 |
| 20260507091551 | 41 | 0 | 0.0 | 0.0 | 0.00 | 0.00 | 0.00 | 94 | 1013.8 |
| 20260507091051 | 41 | 0 | 0.0 | 0.0 | 0.00 | 0.00 | 0.00 | 94 | 1013.8 |
| 20260507090550 | 41 | 0 | 0.0 | 0.0 | 0.00 | 0.00 | 0.00 | 94 | 1013.8 |
| 20260507090050 | 41 | 0 | 0.0 | 0.0 | 0.00 | 0.00 | 0.00 | 94 | 1013.8 |
| 20260507085548 | 41 | 0 | 0.0 | 0.0 | 0.00 | 0.00 | 0.00 | 94 | 1013.7 |
| 20260507085048 | 41 | 0 | 0.0 | 0.0 | 0.00 | 0.00 | 0.00 | 94 | 1013.8 |
| 20260507084546 | 41 | 0 | 0.0 | 0.0 | 0.00 | 0.00 | 0.00 | 94 | 1013.7 |
| 20260507084046 | 41 | 0 | 0.0 | 0.0 | 0.00 | 0.00 | 0.00 | 94 | 1013.6 |
| 20260507083546 | 41 | 0 | 0.0 | 0.0 | 0.00 | 0.00 | 0.00 | 94 | 1013.7 |
| 20260507083045 | 41 | 0 | 0.0 | 0.0 | 0.00 | 0.00 | 0.00 | 94 | 1013.7 |
| 20260507082545 | 41 | 0 | 0.0 | 0.0 | 0.00 | 0.00 | 0.00 | 94 | 1013.6 |
| 20260507082045 | 41 | 0 | 0.0 | 0.0 | 0.00 | 0.00 | 0.00 | 94 | 1013.5 |
| 20260507081544 | 41 | 18 | 0.0 | 1.0 | 0.00 | 0.00 | 0.00 | 94 | 1013.6 |
| 20260507081043 | 41 | 23 | 0.0 | 2.0 | 0.00 | 0.00 | 0.00 | 94 | 1013.6 |
| 20260507080543 | 42 | 24 | 0.0 | 2.0 | 0.00 | 0.00 | 0.00 | 94 | 1013.6 |
| 20260507080043 | 42 | 0 | 0.0 | 0.0 | 0.00 | 0.00 | 0.00 | 94 | 1013.6 |
| 20260507075542 | 41 | 0 | 0.0 | 0.0 | 0.00 | 0.00 | 0.00 | 94 | 1013.6 |
| 20260507075041 | 41 | 356 | 0.0 | 1.0 | 0.00 | 0.00 | 0.00 | 94 | 1013.6 |
| 20260507074541 | 41 | 14 | 1.0 | 3.0 | 0.00 | 0.00 | 0.00 | 94 | 1013.6 |
| 20260507074041 | 42 | 20 | 0.0 | 2.0 | 0.00 | 0.00 | 0.00 | 94 | 1013.6 |
| 20260507073540 | 42 | 0 | 0.0 | 0.0 | 0.00 | 0.00 | 0.00 | 94 | 1013.6 |
| 20260507072539 | 42 | 0 | 0.0 | 0.0 | 0.00 | 0.00 | 0.00 | 94 | 1013.6 |
| 20260507072039 | 43 | 0 | 0.0 | 0.0 | 0.00 | 0.00 | 0.00 | 94 | 1013.6 |
| 20260507071538 | 43 | 0 | 0.0 | 0.0 | 0.00 | 0.00 | 0.00 | 93 | 1013.7 |
| 20260507071037 | 43 | 0 | 0.0 | 0.0 | 0.00 | 0.00 | 0.00 | 94 | 1013.6 |
| 20260507070537 | 43 | 0 | 0.0 | 0.0 | 0.00 | 0.00 | 0.00 | 93 | 1013.6 |
| 20260507070036 | 43 | 0 | 0.0 | 0.0 | 0.00 | 0.00 | 0.00 | 93 | 1013.7 |
| 20260507065536 | 43 | 0 | 0.0 | 0.0 | 0.00 | 0.00 | 0.00 | 93 | 1013.7 |
| 20260507065036 | 44 | 0 | 0.0 | 0.0 | 0.00 | 0.00 | 0.00 | 93 | 1013.7 |
| 20260507064536 | 44 | 0 | 0.0 | 0.0 | 0.00 | 0.00 | 0.00 | 93 | 1013.8 |
| 20260507064035 | 44 | 0 | 0.0 | 0.0 | 0.00 | 0.00 | 0.00 | 93 | 1013.8 |
| 20260507063534 | 44 | 0 | 0.0 | 0.0 | 0.00 | 0.00 | 0.00 | 93 | 1013.8 |
| 20260507063034 | 44 | 0 | 0.0 | 0.0 | 0.00 | 0.00 | 0.00 | 93 | 1013.8 |
| 20260507062531 | 44 | 0 | 0.0 | 0.0 | 0.00 | 0.00 | 0.00 | 93 | 1013.7 |
| 20260507062030 | 45 | 0 | 0.0 | 0.0 | 0.00 | 0.00 | 0.00 | 93 | 1013.8 |
| 20260507061028 | 45 | 0 | 0.0 | 0.0 | 0.00 | 0.00 | 0.00 | 92 | 1013.8 |
| 20260507060527 | 45 | 0 | 0.0 | 0.0 | 0.00 | 0.00 | 0.00 | 92 | 1013.8 |
| 20260507060027 | 45 | 0 | 0.0 | 0.0 | 0.00 | 0.00 | 0.00 | 92 | 1013.8 |
| 20260507055527 | 45 | 0 | 0.0 | 0.0 | 0.00 | 0.00 | 0.00 | 92 | 1013.8 |
| 20260507055027 | 45 | 0 | 0.0 | 0.0 | 0.00 | 0.00 | 0.00 | 92 | 1013.8 |
| 20260507054526 | 45 | 0 | 0.0 | 0.0 | 0.00 | 0.00 | 0.00 | 92 | 1013.9 |
| 20260507054026 | 45 | 0 | 0.0 | 0.0 | 0.00 | 0.00 | 0.00 | 92 | 1013.9 |
| 20260507053525 | 45 | 0 | 0.0 | 0.0 | 0.00 | 0.00 | 0.00 | 92 | 1013.8 |
| 20260507053024 | 45 | 0 | 0.0 | 0.0 | 0.00 | 0.00 | 0.00 | 91 | 1013.8 |
| 20260507052524 | 46 | 0 | 0.0 | 0.0 | 0.00 | 0.00 | 0.00 | 91 | 1013.8 |
| 20260507052024 | 46 | 0 | 0.0 | 0.0 | 0.00 | 0.00 | 0.00 | 91 | 1013.9 |
| 20260507051523 | 46 | 0 | 0.0 | 0.0 | 0.00 | 0.00 | 0.00 | 91 | 1014.0 |
| 20260507051023 | 46 | 0 | 0.0 | 0.0 | 0.00 | 0.00 | 0.00 | 91 | 1014.0 |
| 20260507050523 | 46 | 0 | 0.0 | 0.0 | 0.00 | 0.00 | 0.00 | 91 | 1014.1 |
| 20260507050023 | 46 | 0 | 0.0 | 0.0 | 0.00 | 0.00 | 0.00 | 91 | 1014.1 |
| 20260507045521 | 46 | 0 | 0.0 | 0.0 | 0.00 | 0.00 | 0.00 | 91 | 1014.1 |
| 20260507045021 | 46 | 38 | 0.0 | 2.0 | 0.00 | 0.00 | 0.00 | 91 | 1014.0 |
| 20260507044520 | 46 | 17 | 1.0 | 3.0 | 0.00 | 0.00 | 0.00 | 91 | 1013.9 |
| 20260507044020 | 46 | 323 | 1.0 | 2.0 | 0.00 | 0.00 | 0.00 | 91 | 1013.9 |
| 20260507043519 | 46 | 10 | 1.0 | 2.0 | 0.00 | 0.00 | 0.00 | 91 | 1013.8 |
| 20260507043018 | 46 | 0 | 0.0 | 0.0 | 0.00 | 0.00 | 0.00 | 91 | 1013.9 |
| 20260507042518 | 47 | 8 | 1.0 | 2.0 | 0.00 | 0.00 | 0.00 | 91 | 1013.9 |
| 20260507042018 | 47 | 10 | 2.0 | 2.0 | 0.00 | 0.00 | 0.00 | 91 | 1013.9 |
| 20260507041518 | 47 | 13 | 1.0 | 2.0 | 0.00 | 0.00 | 0.00 | 91 | 1013.8 |
| 20260507041017 | 47 | 7 | 1.0 | 2.0 | 0.00 | 0.00 | 0.00 | 91 | 1013.8 |
| 20260507040517 | 46 | 4 | 2.0 | 3.0 | 0.00 | 0.00 | 0.00 | 91 | 1013.7 |
| 20260507040017 | 46 | 14 | 1.0 | 2.0 | 0.00 | 0.00 | 0.47 | 90 | 1013.8 |
| 20260507035517 | 47 | 11 | 1.0 | 2.0 | 0.00 | 0.00 | 0.47 | 90 | 1013.8 |
| 20260507034516 | 47 | 11 | 2.0 | 2.0 | 0.00 | 0.00 | 0.47 | 89 | 1013.8 |
| 20260507034016 | 47 | 13 | 2.0 | 3.0 | 0.00 | 0.00 | 0.47 | 89 | 1013.7 |
| 20260507033014 | 47 | 14 | 1.0 | 3.0 | 0.00 | 0.00 | 0.47 | 88 | 1013.8 |
| 20260507032514 | 47 | 17 | 2.0 | 2.0 | 0.00 | 0.00 | 0.47 | 88 | 1013.8 |
| 20260507032017 | 47 | 10 | 1.0 | 3.0 | 0.00 | 0.00 | 0.47 | 88 | 1013.8 |
| 20260507031509 | 47 | 0 | 0.0 | 0.0 | 0.00 | 0.00 | 0.47 | 88 | 1013.8 |
| 20260507031009 | 48 | 0 | 0.0 | 0.0 | 0.00 | 0.00 | 0.47 | 87 | 1013.9 |
| 20260507030508 | 47 | 0 | 0.0 | 0.0 | 0.00 | 0.00 | 0.47 | 87 | 1013.9 |
| 20260507025506 | 48 | 0 | 0.0 | 0.0 | 0.00 | 0.00 | 0.47 | 86 | 1013.9 |
| 20260507025006 | 48 | 0 | 0.0 | 0.0 | 0.00 | 0.00 | 0.47 | 85 | 1013.9 |
| 20260507024505 | 48 | 15 | 1.0 | 2.0 | 0.00 | 0.00 | 0.47 | 85 | 1013.9 |
| 20260507023504 | 48 | 13 | 2.0 | 3.0 | 0.00 | 0.00 | 0.47 | 84 | 1013.9 |
| 20260507023004 | 49 | 7 | 1.0 | 2.0 | 0.00 | 0.00 | 0.47 | 84 | 1013.9 |
| 20260507022503 | 49 | 0 | 0.0 | 0.0 | 0.00 | 0.00 | 0.47 | 82 | 1013.9 |
| 20260507022003 | 49 | 24 | 0.0 | 1.0 | 0.00 | 0.00 | 0.47 | 81 | 1013.9 |
| 20260507021503 | 49 | 24 | 0.0 | 0.0 | 0.00 | 0.00 | 0.47 | 80 | 1013.8 |
| 20260507021002 | 50 | 0 | 0.0 | 0.0 | 0.00 | 0.00 | 0.47 | 79 | 1013.7 |
| 20260507020501 | 50 | 0 | 0.0 | 0.0 | 0.00 | 0.00 | 0.47 | 78 | 1013.6 |
| 20260507020000 | 50 | 0 | 0.0 | 0.0 | 0.00 | 0.00 | 0.47 | 78 | 1013.6 |
| 20260507015500 | 50 | 0 | 0.0 | 0.0 | 0.00 | 0.00 | 0.47 | 77 | 1013.5 |
| 20260507014959 | 50 | 0 | 0.0 | 0.0 | 0.00 | 0.00 | 0.47 | 77 | 1013.5 |
| 20260507014458 | 50 | 304 | 0.0 | 2.0 | 0.00 | 0.00 | 0.47 | 78 | 1013.4 |
| 20260507013958 | 50 | 347 | 0.0 | 2.0 | 0.00 | 0.00 | 0.47 | 79 | 1013.4 |
| 20260507013458 | 50 | 332 | 0.0 | 0.0 | 0.00 | 0.00 | 0.47 | 80 | 1013.3 |
| 20260507012957 | 50 | 180 | 0.0 | 3.0 | 0.00 | 0.00 | 0.47 | 80 | 1013.2 |
| 20260507012456 | 50 | 0 | 0.0 | 0.0 | 0.00 | 0.00 | 0.47 | 79 | 1013.2 |
| 20260507011956 | 51 | 0 | 0.0 | 0.0 | 0.00 | 0.00 | 0.47 | 78 | 1013.3 |
| 20260507011456 | 51 | 0 | 0.0 | 0.0 | 0.00 | 0.00 | 0.47 | 76 | 1013.2 |
| 20260507010954 | 51 | 0 | 0.0 | 0.0 | 0.00 | 0.00 | 0.47 | 75 | 1013.3 |
| 20260507010453 | 51 | 0 | 0.0 | 0.0 | 0.00 | 0.00 | 0.47 | 73 | 1013.2 |
| 20260507005453 | 52 | 0 | 0.0 | 0.0 | 0.00 | 0.00 | 0.47 | 69 | 1013.3 |
| 20260507004953 | 53 | 0 | 0.0 | 0.0 | 0.00 | 0.00 | 0.47 | 66 | 1013.2 |
| 20260507004452 | 54 | 0 | 0.0 | 0.0 | 0.00 | 0.00 | 0.47 | 64 | 1013.1 |
| 20260507003952 | 54 | 0 | 0.0 | 0.0 | 0.00 | 0.00 | 0.47 | 62 | 1013.1 |
| 20260507003451 | 55 | 304 | 0.0 | 1.0 | 0.00 | 0.00 | 0.47 | 60 | 1013.0 |
| 20260507002951 | 55 | 283 | 1.0 | 3.0 | 0.00 | 0.00 | 0.47 | 59 | 1013.0 |
| 20260507002451 | 55 | 264 | 1.0 | 3.0 | 0.00 | 0.00 | 0.47 | 59 | 1012.9 |
| 20260507001952 | 55 | 297 | 2.0 | 4.0 | 0.00 | 0.00 | 0.47 | 59 | 1012.8 |
| 20260507001448 | 55 | 295 | 1.0 | 4.0 | 0.00 | 0.00 | 0.47 | 61 | 1012.8 |
| 20260507000948 | 56 | 0 | 0.0 | 0.0 | 0.00 | 0.00 | 0.47 | 60 | 1012.6 |
| 20260507000444 | 56 | 17 | 0.0 | 4.0 | 0.00 | 0.00 | 0.47 | 59 | 1012.6 |
| 20260506235944 | 56 | 8 | 0.0 | 1.0 | 0.00 | 0.00 | 0.47 | 59 | 1012.5 |
| 20260506235444 | 56 | 359 | 1.0 | 4.0 | 0.00 | 0.00 | 0.47 | 58 | 1012.6 |
| 20260506234944 | 56 | 311 | 3.0 | 6.0 | 0.00 | 0.00 | 0.47 | 56 | 1012.8 |
| 20260506234443 | 56 | 339 | 3.0 | 5.0 | 0.00 | 0.00 | 0.47 | 56 | 1012.6 |
| 20260506233943 | 56 | 325 | 1.0 | 5.0 | 0.00 | 0.00 | 0.47 | 58 | 1012.5 |
| 20260506233443 | 56 | 338 | 2.0 | 6.0 | 0.00 | 0.00 | 0.47 | 57 | 1012.5 |
| 20260506232943 | 56 | 290 | 3.0 | 7.0 | 0.00 | 0.00 | 0.47 | 57 | 1012.4 |
| 20260506232440 | 57 | 338 | 2.0 | 8.0 | 0.00 | 0.00 | 0.47 | 57 | 1012.4 |
| 20260506231941 | 57 | 319 | 3.0 | 7.0 | 0.00 | 0.00 | 0.47 | 56 | 1012.4 |
| 20260506231439 | 57 | 359 | 2.0 | 5.0 | 0.00 | 0.00 | 0.47 | 54 | 1012.4 |
| 20260506230438 | 57 | 315 | 4.0 | 6.0 | 0.00 | 0.00 | 0.47 | 56 | 1012.6 |
| 20260506225938 | 57 | 329 | 3.0 | 7.0 | 0.00 | 0.00 | 0.47 | 55 | 1012.5 |
| 20260506224937 | 57 | 335 | 3.0 | 6.0 | 0.00 | 0.00 | 0.47 | 57 | 1012.5 |
| 20260506224437 | 57 | 305 | 1.0 | 4.0 | 0.00 | 0.00 | 0.47 | 57 | 1012.6 |